Mattoon, IL

11:52 AM CST on December 12, 2017 (GMT -0600)
Coles County Memorial

Weather History for KMTO - June, 2013

Change the Weather History Date:

Wednesday, June 12, 2013

  Actual Average Record
Temperature  
Mean Temperature 84 °F 71 °F  
Max Temperature 91 °F 81 °F 97 °F (1953)
Min Temperature 77 °F 61 °F 46 °F (1985)
Degree Days  
Heating Degree Days 0 1  
Month to date heating degree days 11 14  
Since 1 June heating degree days 11 14  
Since 1 July heating degree days 5387 5404  
Cooling Degree Days 19 7  
Month to date cooling degree days 51 66  
Year to date cooling degree days 160 154  
Since 1 June cooling degree days 51 66  
Growing Degree Days 34 (Base 50)    
Moisture  
Dew Point 72 °F    
Average Humidity 68    
Maximum Humidity 79    
Minimum Humidity 56    
Precipitation  
Precipitation 0.00 in 0.13 in 1.05 in (1967)
Month to date precipitation 0.57 1.96  
Year to date precipitation 23.22 16.31  
Sea Level Pressure  
Sea Level Pressure 29.80 in    
Wind  
Wind Speed 10 mph (SW)    
Max Wind Speed 23 mph    
Max Gust Speed 31 mph    
Visibility 10 miles    
Events      
T = Trace of Precipitation, MM = Missing Value Source: NWS Daily Summary

Daily Weather History Graph

Daily Weather History Graph

Search for Another Location

Airport or City:

Trip Planner

Search our weather history database for the weather conditions in past years. The results will help you decide how hot, cold, wet, or windy it might be!

Date:

Astronomy

Jun. 12, 2013 Rise Set
Actual Time 5:25 AM CDT 8:20 PM CDT
Civil Twilight 4:53 AM CDT 8:53 PM CDT
Nautical Twilight 4:12 AM CDT 9:34 PM CDT
Astronomical Twilight 3:25 AM CDT 10:21 PM CDT
Moon 9:03 AM CDT 10:57 PM CDT
Length of Visible Light 16h 00m
Length of Day
14h 55m
Waxing Crescent, 14% of the Moon is Illuminated
Jun 12
Waxing Crescent
Jun 16
First Quarter
Jun 23
Full
Jun 29
Last Quarter
Jul 8
New

Hourly Weather History & Observations

Time (CDT) Temp. Heat Index Dew Point Humidity Pressure Visibility Wind Dir Wind Speed Gust Speed Precip Events Conditions
12:53 AM 79.0 °F - 72.0 °F 79% 29.86 in 10.0 mi SW 9.2 mph - N/A   Clear
1:53 AM 79.0 °F - 72.0 °F 79% 29.86 in 10.0 mi SW 8.1 mph - N/A   Clear
2:53 AM 79.0 °F - 71.1 °F 77% 29.85 in 10.0 mi SW 6.9 mph - N/A   Clear
3:53 AM 78.1 °F - 71.1 °F 79% 29.87 in 10.0 mi WSW 8.1 mph - N/A   Clear
4:53 AM 78.1 °F - 71.1 °F 79% 29.88 in 10.0 mi WSW 5.8 mph - N/A   Clear
5:53 AM 77.0 °F - 70.0 °F 79% 29.89 in 10.0 mi SW 8.1 mph - N/A   Unknown
6:53 AM 79.0 °F - 71.1 °F 77% 29.91 in 10.0 mi WSW 6.9 mph - N/A   Clear
7:53 AM 81.0 °F 84.9 °F 71.1 °F 72% 29.91 in 10.0 mi WSW 9.2 mph - N/A   Clear
8:53 AM 82.0 °F 86.7 °F 72.0 °F 71% 29.92 in 10.0 mi WSW 6.9 mph - N/A   Clear
9:53 AM 84.0 °F 89.0 °F 71.1 °F 65% 29.91 in 10.0 mi WSW 9.2 mph - N/A   Clear
10:53 AM 84.9 °F 90.7 °F 72.0 °F 65% 29.90 in 10.0 mi WSW 9.2 mph - N/A   Clear
11:53 AM 88.0 °F 94.7 °F 72.0 °F 59% 29.86 in 10.0 mi SSW 9.2 mph - N/A   Clear
12:53 PM 88.0 °F 95.6 °F 73.0 °F 61% 29.82 in 10.0 mi South 13.8 mph 18.4 mph N/A   Clear
1:53 PM 88.0 °F 95.6 °F 73.0 °F 61% 29.78 in 10.0 mi SSW 16.1 mph 26.5 mph N/A   Clear
2:53 PM 89.1 °F 96.0 °F 72.0 °F 57% 29.76 in 10.0 mi SSW 16.1 mph 29.9 mph N/A   Clear
3:53 PM 90.0 °F 96.9 °F 72.0 °F 55% 29.76 in 10.0 mi SSW 15.0 mph 26.5 mph N/A   Clear
4:53 PM 90.0 °F 97.9 °F 73.0 °F 57% 29.75 in 10.0 mi SSW 15.0 mph 20.7 mph N/A   Partly Cloudy
5:53 PM 90.0 °F 97.9 °F 73.0 °F 57% 29.73 in 10.0 mi SW 12.7 mph 26.5 mph N/A   Partly Cloudy
6:53 PM 89.1 °F 96.0 °F 72.0 °F 57% 29.69 in 10.0 mi SW 13.8 mph 27.6 mph N/A   Clear
7:53 PM 87.1 °F 94.5 °F 73.0 °F 63% 29.68 in 10.0 mi SSW 9.2 mph 18.4 mph N/A   Partly Cloudy
8:53 PM 86.0 °F 93.0 °F 73.0 °F 65% 29.66 in 10.0 mi SSW 11.5 mph 19.6 mph N/A   Overcast
9:53 PM 84.9 °F 92.1 °F 73.9 °F 69% 29.69 in 10.0 mi SW 8.1 mph - N/A   Overcast
10:53 PM 84.0 °F 90.2 °F 73.0 °F 69% 29.68 in 10.0 mi SW 10.4 mph 18.4 mph N/A   Partly Cloudy
11:53 PM 82.9 °F 88.8 °F 73.0 °F 72% 29.67 in 10.0 mi WSW 10.4 mph 19.6 mph N/A   Clear